Frankfort, MI

4:58 AM EDT on July 23, 2017 (GMT -0400)
Frankfort

Weather History for KFKS - October, 2012

Change the Weather History Date:

Monday, October 15, 2012

  Actual Average (KMBL) Record (KMBL)
Temperature  
Mean Temperature 42 °F -  
Max Temperature 49 °F 59 °F 81 °F (1968)
Min Temperature 36 °F 44 °F 26 °F (2006)
Degree Days  
Heating Degree Days 22    
Moisture  
Dew Point 39 °F    
Average Humidity 74    
Maximum Humidity 88    
Minimum Humidity 61    
Precipitation  
Precipitation 0.00 in - - ()
Sea Level Pressure  
Sea Level Pressure 29.79 in    
Wind  
Wind Speed 13 mph (NW)    
Max Wind Speed 20 mph    
Max Gust Speed 33 mph    
Visibility 10 miles    
Events Rain    
Averages and records for this station are not official NWS values.
T = Trace of Precipitation, MM = Missing Value Source: NWS Daily Summary

Daily Weather History Graph

Daily Weather History Graph

Search for Another Location

Airport or City:

Trip Planner

Search our weather history database for the weather conditions in past years. The results will help you decide how hot, cold, wet, or windy it might be!

Date:

Astronomy

Oct. 15, 2012 Rise Set
Actual Time 8:00 AM EDT 6:59 PM EDT
Civil Twilight 7:31 AM EDT 7:28 PM EDT
Nautical Twilight 6:57 AM EDT 8:02 PM EDT
Astronomical Twilight 6:23 AM EDT 8:36 PM EDT
Moon 8:12 AM EDT (10/15) 6:55 PM EDT (10/15)
Length of Visible Light 11h 57m
Length of Day
10h 58m
New Moon, 0% of the Moon is Illuminated
Oct 15
New Moon
Oct 21
First Quarter
Oct 29
Full
Nov 6
Last Quarter
Nov 13
New

Hourly Weather History & Observations

Time (EDT) Temp. Dew Point Humidity Pressure Visibility Wind Dir Wind Speed Gust Speed Precip Events Conditions
12:15 AM 49.5 °F 43.0 °F 78% 29.55 in 10.0 mi NNW 19.6 mph 32.2 mph N/A   Overcast
12:35 AM 49.5 °F 43.0 °F 78% 29.56 in 10.0 mi NW 16.1 mph 33.4 mph N/A   Overcast
1:11 AM 49.1 °F 43.2 °F 80% 29.57 in 10.0 mi NW 19.6 mph 32.2 mph N/A Rain Light Rain
1:51 AM 49.1 °F 41.9 °F 76% 29.58 in 10.0 mi NNW 17.3 mph 28.8 mph N/A Rain Light Rain
2:11 AM 48.9 °F 42.8 °F 79% 29.58 in 10.0 mi NW 11.5 mph 20.7 mph N/A Rain Light Rain
2:31 AM 48.4 °F 42.4 °F 80% 29.59 in 10.0 mi NNW 15.0 mph 25.3 mph N/A Rain Light Rain
2:52 AM 48.4 °F 42.3 °F 79% 29.60 in 10.0 mi NNW 11.5 mph 28.8 mph N/A Rain Light Rain
3:12 AM 48.2 °F 42.1 °F 79% 29.61 in 10.0 mi NW 16.1 mph 27.6 mph N/A Rain Light Rain
3:32 AM 48.2 °F 42.1 °F 79% 29.62 in 10.0 mi NW 18.4 mph 29.9 mph N/A Rain Light Rain
3:52 AM 47.8 °F 42.1 °F 80% 29.62 in 10.0 mi NW 12.7 mph 23.0 mph N/A Rain Light Rain
4:12 AM 48.2 °F 42.1 °F 79% 29.63 in 10.0 mi NNW 12.7 mph 31.1 mph N/A Rain Light Rain
4:32 AM 48.2 °F 42.1 °F 79% 29.63 in 10.0 mi NW 18.4 mph 25.3 mph N/A   Drizzle
4:53 AM 47.8 °F 41.7 °F 79% 29.64 in 10.0 mi NNW 11.5 mph 25.3 mph N/A Rain Light Rain
5:13 AM 47.7 °F 41.9 °F 80% 29.65 in 7.0 mi NNW 15.0 mph 27.6 mph N/A Rain Light Rain
5:53 AM 47.7 °F 41.9 °F 80% 29.67 in 10.0 mi NW 15.0 mph 28.8 mph N/A Rain Light Rain
6:13 AM 47.8 °F 42.3 °F 81% 29.68 in 10.0 mi NNW 15.0 mph 27.6 mph N/A Rain Light Rain
6:33 AM 47.7 °F 42.1 °F 81% 29.68 in 10.0 mi NNW 12.7 mph 23.0 mph N/A Rain Light Rain
6:54 AM 47.7 °F 42.4 °F 82% 29.69 in 10.0 mi NNW 11.5 mph 19.6 mph N/A Rain Rain
7:14 AM 47.5 °F 42.3 °F 82% 29.70 in 10.0 mi NNW 12.7 mph 20.7 mph N/A Rain Light Rain
7:34 AM 47.8 °F 42.4 °F 82% 29.71 in 10.0 mi NNW 12.7 mph 23.0 mph N/A Rain Rain
8:14 AM 47.5 °F 42.3 °F 82% 29.73 in 7.0 mi NNW 15.0 mph 24.2 mph N/A Rain Light Rain
8:34 AM 47.5 °F 42.3 °F 82% 29.74 in 10.0 mi NNW 16.1 mph 24.2 mph N/A Rain Light Rain
8:54 AM 47.5 °F 42.3 °F 82% 29.74 in 10.0 mi NNW 10.4 mph 19.6 mph N/A Rain Light Rain
9:15 AM 47.3 °F 41.9 °F 82% 29.76 in 10.0 mi NNW 8.1 mph 21.9 mph N/A   Light Drizzle
9:35 AM 47.8 °F 41.7 °F 79% 29.77 in 10.0 mi NW 12.7 mph 20.7 mph N/A   Overcast
9:55 AM 48.0 °F 41.0 °F 77% 29.78 in 10.0 mi NNW 12.7 mph 20.7 mph N/A   Overcast
10:15 AM 48.2 °F 40.3 °F 74% 29.78 in 10.0 mi NW 17.3 mph 28.8 mph N/A   Overcast
10:35 AM 48.2 °F 40.1 °F 74% 29.80 in 10.0 mi NNW 10.4 mph 21.9 mph N/A   Overcast
10:55 AM 48.4 °F 39.7 °F 72% 29.80 in 10.0 mi NNW 9.2 mph 21.9 mph N/A   Overcast
11:16 AM 49.1 °F 39.0 °F 68% 29.81 in 10.0 mi NNW 11.5 mph 21.9 mph N/A   Overcast
11:31 AM 49.1 °F 39.0 °F 68% 29.81 in 10.0 mi NNW 12.7 mph 23.0 mph N/A   Overcast
11:51 AM 48.6 °F 39.0 °F 70% 29.82 in 10.0 mi NNW 8.1 mph 21.9 mph N/A   Overcast
12:11 PM 48.4 °F 38.7 °F 69% 29.83 in 10.0 mi NNW 10.4 mph 26.5 mph N/A   Overcast
12:31 PM 48.2 °F 39.7 °F 73% 29.83 in 10.0 mi NW 12.7 mph 20.7 mph N/A   Overcast
12:51 PM 48.2 °F 40.8 °F 76% 29.84 in 7.0 mi NW 11.5 mph 19.6 mph N/A   Overcast
1:11 PM 48.0 °F 40.5 °F 75% 29.84 in 7.0 mi NW 8.1 mph 17.3 mph N/A   Overcast
1:32 PM 49.1 °F 40.3 °F 72% 29.85 in 10.0 mi NW 15.0 mph 20.7 mph N/A   Overcast
2:12 PM 48.6 °F 38.5 °F 68% 29.85 in 10.0 mi NW 10.4 mph 18.4 mph N/A   Overcast
2:32 PM 48.7 °F 38.5 °F 68% 29.85 in 10.0 mi NNW 11.5 mph 17.3 mph N/A   Overcast
2:52 PM 49.1 °F 38.1 °F 66% 29.86 in 10.0 mi NNW 9.2 mph - N/A   Overcast
3:12 PM 49.5 °F 37.9 °F 65% 29.86 in 10.0 mi NNW 9.2 mph 16.1 mph N/A   Overcast
3:32 PM 49.5 °F 38.1 °F 65% 29.86 in 10.0 mi NNW 9.2 mph 19.6 mph N/A   Overcast
3:53 PM 49.1 °F 37.6 °F 64% 29.86 in 10.0 mi NW 11.5 mph - N/A   Overcast
4:13 PM 49.3 °F 37.4 °F 64% 29.88 in 10.0 mi NW 10.4 mph 17.3 mph N/A   Overcast
4:33 PM 49.1 °F 37.4 °F 64% 29.88 in 10.0 mi NW 11.5 mph 18.4 mph N/A   Overcast
4:53 PM 49.3 °F 37.0 °F 63% 29.88 in 10.0 mi NNW 8.1 mph 17.3 mph N/A   Overcast
5:13 PM 49.6 °F 37.4 °F 63% 29.88 in 10.0 mi NW 9.2 mph 17.3 mph N/A   Overcast
5:33 PM 49.1 °F 38.3 °F 66% 29.89 in 10.0 mi NW 8.1 mph - N/A   Overcast
5:53 PM 49.1 °F 37.2 °F 64% 29.90 in 10.0 mi NW 9.2 mph 19.6 mph N/A   Overcast
6:14 PM 49.1 °F 36.7 °F 62% 29.91 in 10.0 mi NW 5.8 mph - N/A   Overcast
6:34 PM 49.1 °F 36.0 °F 61% 29.91 in 10.0 mi NW 8.1 mph - N/A   Overcast
7:14 PM 48.6 °F 36.1 °F 62% 29.92 in 10.0 mi NW 6.9 mph - N/A   Overcast
7:34 PM 48.7 °F 36.1 °F 62% 29.92 in 10.0 mi NW 4.6 mph - N/A   Overcast
7:54 PM 48.6 °F 36.0 °F 62% 29.91 in 10.0 mi NW 3.5 mph - N/A   Overcast
8:15 PM 48.6 °F 36.5 °F 63% 29.91 in 10.0 mi NNW 4.6 mph - N/A   Overcast
8:35 PM 48.7 °F 37.0 °F 64% 29.91 in 10.0 mi NW 4.6 mph - N/A   Overcast
8:55 PM 48.9 °F 36.5 °F 62% 29.92 in 10.0 mi NNW 3.5 mph - N/A   Overcast
9:15 PM 48.4 °F 35.4 °F 61% 29.92 in 10.0 mi NNW 4.6 mph - N/A   Mostly Cloudy
9:35 PM 45.0 °F 35.2 °F 69% 29.93 in 10.0 mi Calm Calm - N/A   Scattered Clouds
9:56 PM 41.7 °F 35.4 °F 78% 29.93 in 10.0 mi Calm Calm - N/A   Clear
10:11 PM 40.6 °F 35.8 °F 83% 29.93 in 10.0 mi Calm Calm - N/A   Clear
10:31 PM 38.8 °F 34.7 °F 85% 29.94 in 10.0 mi Calm Calm - N/A   Clear
10:51 PM 38.7 °F 34.7 °F 86% 29.93 in 10.0 mi Calm Calm - N/A   Clear
11:11 PM 37.6 °F 34.3 °F 88% 29.94 in 7.0 mi Calm Calm - N/A   Clear
11:31 PM 36.7 °F 33.4 °F 88% 29.94 in 10.0 mi Calm Calm - N/A   Clear
11:51 PM 36.5 °F 33.3 °F 88% 29.93 in 10.0 mi Calm Calm - N/A   Clear